Powrót do katalogu

FENGYUN 1C DEB

AktywnySSO
NORAD 29989·DEBRIS·🇨🇳 China

Wystrzelony May 10, 1999 z Taiyuan Satellite Launch Center

Loading…

Następne Przeloty (najbliższe 24 godziny)

TLE

ŚwieżeSource: Space-Track

Epoka: Sep 14, 2026, 10:21 UTC

1 29989U 99025LP  26257.43173661  .00000173  00000-0  10092-3 0  9991
2 29989  98.6991 234.3686 0124182 126.0124  24.6966 14.16004089 15087

Śledź FENGYUN 1C DEB w czasie rzeczywistym z AllMySat

Download on the App Store